Wind_Speed
50 51 51 53 54 55 56 56 58 60 59 59 57 58 59 59 61 60 62 64 56 54 57 54 58 61 58 59 58 55 55 55 55 54 53 54 54 49 46 45 44 45 44 37 29 27 31 32 34 41 45 47 48 47 47 47 49 50 49 46 41 37 38 41 42 42 43 42 41 43 45 45 45 46 46 46 45 43 41 39 40 39 37 36 34 33
47 48 49 51 53 53 54 55 56 56 55 57 57 58 59 59 61 59 63 66 54 49 58 58 58 61 59 57 56 53 53 54 54 52 52 54 52 47 44 44 44 45 41 31 24 27 35 40 42 44 46 50 52 51 50 48 48 48 47 47 45 42 42 43 42 41 40 40 40 43 47 48 47 46 45 44 41 39 38 37 36 35 34 34 32 30
45 47 48 50 51 51 51 53 54 54 55 57 58 58 59 59 60 59 63 64 51 49 60 60 58 61 57 56 57 53 50 54 54 51 51 51 49 45 44 44 45 45 39 30 27 33 42 49 48 45 46 50 52 51 50 48 47 46 44 45 46 45 44 43 42 41 41 42 42 44 46 47 46 45 44 42 40 38 36 34 32 32 32 32 31 29
44 46 46 48 48 47 49 52 52 53 55 56 56 56 57 57 58 59 62 60 52 54 61 60 57 58 55 56 57 53 51 54 53 50 50 49 47 44 43 43 44 42 36 31 33 39 48 53 49 46 46 48 50 49 49 47 44 43 43 43 46 47 46 44 42 41 40 40 42 44 44 43 43 42 43 43 41 37 33 32 32 32 31 30 29 27
43 44 45 46 44 45 49 50 50 52 53 54 53 54 55 56 56 58 60 58 54 55 59 60 57 55 55 57 57 54 53 53 51 50 49 48 46 44 43 43 42 39 35 35 40 46 51 52 49 50 49 49 52 50 48 45 41 41 42 42 44 45 45 44 41 39 40 40 41 41 41 41 40 39 39 41 40 36 34 34 33 32 31 29 28 26
42 42 43 43 43 47 49 49 49 50 51 51 51 52 53 53 54 57 58 55 54 55 58 59 56 54 56 57 56 55 54 51 49 49 48 46 44 43 44 42 37 34 34 38 45 50 51 47 48 53 53 52 53 51 49 46 44 41 40 42 44 43 44 44 44 44 44 44 45 44 42 41 39 38 38 40 41 39 37 37 35 32 31 31 30 29
40 39 41 42 45 47 47 46 48 48 48 49 49 50 51 51 51 54 55 52 53 55 55 55 53 54 55 56 55 55 54 50 47 47 46 44 43 43 42 37 33 32 34 40 45 48 47 44 45 50 54 54 52 52 50 48 46 43 41 42 43 43 43 44 46 47 48 48 48 48 45 42 40 40 40 42 43 41 39 39 37 34 32 32 33 34
39 38 41 44 45 45 44 45 46 46 46 47 47 48 48 48 48 51 52 50 51 53 52 51 52 53 53 53 54 53 51 49 46 45 44 43 42 41 36 29 28 31 35 42 45 46 45 44 45 46 50 53 52 52 51 48 46 45 43 43 43 43 43 43 46 48 49 49 49 49 48 46 43 41 41 44 46 43 42 41 39 36 35 34 34 35
38 39 43 43 43 43 43 44 44 44 44 44 44 45 45 46 46 48 49 49 50 50 50 51 52 51 50 50 51 49 48 47 44 43 42 38 36 33 28 25 27 32 38 43 45 45 43 44 46 46 46 50 51 51 51 50 47 46 46 44 43 44 44 43 45 46 47 46 46 45 44 43 42 41 41 43 45 44 44 43 40 39 37 35 34 33
37 39 41 40 41 43 44 44 43 43 43 43 43 44 44 45 45 46 48 48 48 48 48 50 50 49 48 49 48 46 45 43 41 40 38 36 34 31 31 33 34 38 43 45 44 42 39 40 45 47 47 49 50 50 49 51 51 49 49 48 46 45 44 44 44 45 46 46 45 43 39 37 36 37 38 40 43 46 46 44 42 40 38 37 35 34
37 39 40 41 43 45 44 42 42 43 43 42 43 44 44 44 44 45 46 47 47 46 46 47 47 46 47 47 45 43 42 41 39 37 35 34 34 32 34 38 40 43 46 46 43 39 36 38 41 44 47 49 50 50 49 50 52 52 52 52 51 48 46 44 43 43 44 45 46 46 42 38 36 36 38 40 43 46 46 44 42 40 39 37 37 36
37 39 41 43 44 43 42 43 45 45 43 43 45 45 43 44 44 44 45 46 45 43 44 46 45 44 45 45 41 37 37 36 35 34 33 33 31 29 31 35 39 43 46 45 43 39 37 40 42 42 44 47 50 50 50 50 51 53 53 52 51 51 49 46 45 43 41 39 40 42 42 40 38 36 36 38 40 42 43 43 41 40 39 39 39 39
37 40 42 43 42 41 43 45 46 44 43 44 45 44 43 44 44 43 44 44 43 42 44 45 44 43 44 43 38 34 34 35 34 33 32 32 30 29 30 33 36 39 41 43 42 40 39 41 42 43 45 47 48 50 51 51 52 53 54 54 53 53 53 51 48 46 42 39 38 37 38 39 39 38 38 38 38 38 39 39 38 38 39 40 40 40
36 39 40 41 41 41 43 44 44 43 43 44 44 43 43 43 43 44 44 44 43 44 45 45 44 43 42 40 34 32 34 35 34 32 30 31 30 29 30 33 35 35 37 38 37 39 41 41 43 44 46 48 49 49 51 51 52 54 56 57 56 56 56 56 54 51 47 43 41 39 40 41 40 39 39 39 39 38 37 37 37 38 39 40 40 39
35 37 38 40 41 41 43 44 43 43 43 44 44 43 42 43 43 44 44 45 45 45 45 44 43 42 42 38 32 32 35 35 34 33 31 31 29 28 30 32 33 34 37 37 37 39 36 34 39 44 48 51 51 50 50 50 50 52 54 57 58 58 58 57 56 54 51 48 47 46 44 43 42 40 39 40 41 41 41 42 43 43 43 43 43 42
34 36 38 40 41 42 43 43 42 42 42 43 44 43 42 43 43 44 45 45 45 45 44 43 43 42 41 39 35 35 35 33 34 33 30 29 27 26 26 27 27 31 34 34 36 38 30 23 32 42 49 54 56 54 53 52 50 49 50 53 55 56 58 59 58 56 54 51 51 51 50 48 47 45 44 44 45 46 47 47 47 47 48 48 48 48
35 37 38 39 40 41 42 43 42 42 43 43 43 43 43 44 43 44 46 45 45 46 45 44 43 42 41 39 37 37 34 33 33 30 26 26 27 27 27 27 26 27 28 30 32 33 29 25 32 41 46 53 58 58 57 55 52 50 49 48 50 52 53 55 57 57 58 57 55 54 53 53 52 51 50 49 49 49 49 49 49 49 50 50 49 49
36 36 37 38 39 40 42 42 42 43 44 43 43 43 44 44 44 45 46 45 45 46 46 44 42 42 43 40 38 37 33 32 31 27 26 27 27 29 30 30 29 26 28 33 33 31 30 29 36 42 46 52 58 58 56 52 48 47 48 46 48 53 53 51 52 55 58 60 59 56 55 55 55 54 53 53 52 51 50 50 49 49 48 48 48 48
35 35 35 36 37 38 41 41 41 42 44 44 44 44 44 43 43 45 46 47 46 45 46 46 44 44 45 41 39 37 33 32 32 29 28 28 28 29 29 28 30 31 32 36 35 35 33 32 38 46 50 54 58 58 55 50 46 46 48 46 45 51 54 52 49 50 52 55 56 56 55 55 54 53 53 54 55 54 53 52 51 50 50 50 51 52
35 35 36 36 36 37 39 39 40 42 44 45 45 45 45 44 43 43 45 46 46 45 46 47 46 45 43 40 39 38 36 36 37 34 31 30 30 30 29 30 33 34 35 35 35 37 40 40 44 51 54 57 60 59 56 52 50 50 50 49 48 50 53 53 50 49 51 52 52 54 56 56 55 54 54 56 57 57 56 55 54 53 54 54 55 56
36 37 37 37 37 37 38 38 39 42 44 45 46 45 45 45 44 44 45 45 46 47 47 49 49 46 42 40 39 39 38 38 39 37 35 34 33 32 32 33 35 36 37 35 34 38 44 48 53 57 59 59 59 59 57 54 52 52 51 51 51 51 53 56 56 55 56 55 53 54 55 56 57 56 57 57 57 56 56 56 56 55 56 56 56 55
36 37 38 37 36 37 40 40 42 43 44 46 48 47 46 46 46 46 46 45 46 47 48 48 49 46 44 43 41 40 40 40 39 38 38 38 39 39 40 40 40 40 41 41 41 43 47 51 56 60 60 60 58 58 58 56 54 52 52 52 52 52 53 55 57 58 59 59 59 57 56 56 57 56 55 54 53 54 55 56 56 55 55 53 52 52
37 37 38 37 35 37 40 41 43 45 46 46 46 46 46 47 48 49 48 47 46 47 48 48 47 45 44 43 41 42 42 40 38 37 38 39 41 43 46 46 46 45 46 48 48 49 52 54 55 56 56 55 54 54 54 54 54 53 53 52 52 53 53 54 55 56 56 58 60 61 60 57 55 53 49 48 48 50 51 54 56 56 56 55 53 52
38 39 39 38 38 38 39 40 40 43 45 45 45 47 47 46 48 49 49 49 48 48 48 49 48 46 44 43 41 42 42 40 39 37 37 40 42 44 47 49 50 51 52 53 53 53 55 56 55 53 51 51 52 53 52 52 53 53 53 54 53 53 53 53 54 55 55 55 57 59 60 58 56 54 50 49 50 53 55 56 57 58 57 55 54 53
41 41 41 42 41 40 39 39 40 43 44 44 46 48 46 45 47 49 49 49 49 49 48 48 48 46 46 46 44 41 39 38 39 37 36 41 43 44 46 47 48 52 54 56 57 57 57 58 57 56 55 55 55 55 55 54 54 54 54 55 55 54 53 52 53 54 56 56 57 58 59 59 58 58 56 54 53 53 54 54 54 55 55 55 55 56
44 43 43 44 43 43 43 41 41 43 43 43 45 45 45 47 49 48 48 48 48 49 49 48 46 44 45 46 43 40 39 39 38 35 33 37 40 40 43 45 46 48 51 53 54 55 57 58 59 59 60 60 59 57 57 56 54 54 54 54 54 54 53 52 51 52 53 55 57 58 59 60 60 61 61 60 55 50 47 48 50 53 55 56 57 57
45 42 42 43 44 45 46 45 46 46 45 45 45 44 45 49 49 50 50 49 49 50 50 51 48 46 47 45 41 39 38 36 36 34 30 30 32 35 39 43 47 49 50 52 54 56 58 59 61 61 61 60 58 57 57 55 54 54 54 54 53 53 51 49 48 49 51 53 55 56 57 57 59 60 59 57 55 52 49 49 51 52 54 55 55 56
45 42 41 43 44 45 46 47 50 49 48 48 47 46 49 50 48 49 49 49 50 50 50 51 50 48 49 47 45 45 40 36 37 38 35 31 31 34 35 38 45 50 51 54 56 58 59 60 60 60 58 57 56 55 55 54 53 52 51 51 52 52 51 47 43 40 41 44 45 48 49 48 51 56 57 56 54 54 54 52 51 52 54 54 53 53
47 44 42 42 44 45 45 47 50 51 50 49 48 50 53 51 47 47 48 49 51 51 50 51 50 49 48 46 46 47 46 45 44 41 41 40 37 36 37 37 42 47 49 52 53 54 55 56 56 56 55 55 55 54 54 54 52 49 46 44 45 47 47 46 41 35 32 32 33 35 39 42 46 51 54 57 58 59 60 58 56 56 55 51 50 51
50 47 45 44 45 44 45 47 49 50 51 51 51 53 55 53 49 48 49 48 47 48 51 51 50 50 52 50 49 47 45 48 48 44 44 45 42 38 38 39 41 43 45 48 50 51 52 53 54 56 57 57 57 57 57 57 55 52 51 50 49 50 50 50 47 43 40 37 36 37 40 45 50 53 57 59 62 65 66 64 63 62 56 50 48 49
51 50 48 48 48 47 47 48 48 49 49 50 52 55 56 55 52 50 49 46 41 41 47 51 52 52 52 52 52 50 46 45 47 47 48 49 48 45 43 43 43 42 43 46 49 51 52 53 54 55 56 57 58 58 59 59 58 56 56 57 57 56 56 54 53 51 49 48 47 47 48 52 56 60 63 64 64 66 67 66 67 69 66 62 60 60
52 53 52 51 52 51 50 50 49 50 50 51 53 54 55 56 55 52 51 49 44 40 41 48 53 53 51 50 50 51 50 47 44 46 48 49 50 50 48 48 49 49 48 49 52 53 54 55 56 56 57 57 58 59 59 60 61 62 62 62 62 61 59 58 57 56 55 56 57 57 58 61 63 64 65 66 66 67 67 68 70 73 74 75 75 75
56 57 55 54 55 56 54 52 50 50 51 52 54 56 57 57 56 55 54 54 53 51 48 48 50 51 50 48 48 50 53 52 48 47 50 51 53 54 53 52 53 54 53 50 51 53 55 56 58 59 60 60 60 60 60 61 63 65 66 66 65 64 63 61 61 60 60 61 62 63 65 66 67 67 68 70 71 72 73 75 76 77 77 77 78 78
59 60 59 57 57 58 57 54 53 52 51 51 55 59 60 58 57 56 56 57 59 60 59 58 56 54 52 51 51 51 53 55 54 52 52 54 55 57 57 57 56 56 55 53 53 54 55 58 60 61 61 61 61 62 62 64 65 66 66 66 66 66 66 64 64 63 63 64 64 64 65 66 66 68 69 70 72 74 76 78 80 82 82 82 82 81
62 63 62 60 60 60 59 57 57 56 53 53 56 60 61 59 58 57 56 58 60 61 63 63 63 61 58 57 57 55 55 56 57 56 57 58 59 60 61 62 62 63 63 62 62 62 61 61 62 63 63 63 64 65 66 67 69 68 68 69 69 69 69 69 68 68 68 68 68 66 65 65 65 65 66 67 68 70 73 75 78 81 84 85 85 85
65 64 62 61 62 62 61 60 61 60 58 58 59 59 59 59 59 59 58 58 59 61 62 63 63 62 62 61 61 60 59 59 58 58 58 60 61 63 64 65 67 68 68 68 68 68 68 68 69 70 70 70 71 71 72 72 72 72 72 72 72 72 72 71 71 71 71 70 70 69 69 68 67 67 67 67 67 68 70 71 73 76 79 81 83 85
67 66 63 63 63 63 62 62 63 64 63 62 61 60 60 60 60 59 59 59 60 61 62 62 62 62 62 62 63 63 63 63 62 61 61 61 62 64 65 66 67 68 68 70 70 71 73 74 75 76 76 76 75 74 73 72 71 71 72 72 72 72 72 71 71 71 71 70 70 70 71 71 72 73 73 74 74 74 75 75 76 77 79 80 81 82
68 68 66 65 65 64 64 65 67 67 66 64 63 62 62 62 62 61 60 61 61 61 62 62 62 63 62 61 61 61 62 63 63 63 63 64 65 66 67 68 68 68 69 71 72 72 74 75 75 76 76 75 74 73 71 71 71 72 72 73 74 73 72 71 70 70 70 70 71 71 71 72 73 74 76 77 78 79 80 81 82 82 83 83 84 85
70 70 68 68 67 67 66 68 70 70 68 66 65 65 65 65 65 64 63 63 62 61 62 63 63 63 63 61 60 59 58 59 60 61 63 65 67 69 70 70 71 71 71 73 74 74 75 75 75 76 76 76 75 74 73 73 73 74 74 75 76 76 74 73 72 71 70 70 70 70 69 69 70 72 74 77 79 80 82 83 84 85 86 86 87 88
72 70 70 69 70 69 70 72 74 72 70 69 67 67 68 68 67 67 66 65 64 62 62 63 63 63 63 61 60 59 57 57 58 60 62 65 67 69 70 70 71 72 73 74 76 76 77 77 77 77 77 77 77 77 77 77 76 76 78 79 79 79 78 77 76 75 73 71 70 69 67 66 67 68 71 73 75 77 79 81 83 85 86 87 89 90
73 71 70 71 72 72 73 75 76 74 73 72 70 70 72 72 70 68 67 67 65 64 63 63 63 63 63 62 61 61 60 59 60 61 62 64 65 67 68 69 70 71 73 75 77 78 79 79 79 79 79 80 79 79 80 80 79 79 80 81 81 81 81 80 79 78 77 74 73 71 70 68 68 68 69 71 72 73 75 76 77 80 82 83 85 87
73 72 72 73 74 74 75 76 77 77 76 75 73 72 73 74 72 70 68 68 67 65 65 65 63 63 63 63 63 63 62 61 61 62 63 64 65 65 66 68 69 70 71 73 75 76 77 78 78 78 78 78 78 78 79 79 80 80 80 81 81 80 81 81 80 79 78 76 75 74 74 73 72 71 70 71 72 72 72 72 73 75 76 77 79 81
74 74 75 75 75 74 76 77 78 78 78 77 75 74 75 76 75 73 71 70 68 68 68 66 65 65 65 65 65 65 64 63 62 63 65 66 66 66 67 68 69 70 70 71 72 73 74 75 75 76 76 76 76 76 76 77 78 78 80 81 81 81 81 81 82 82 80 78 77 77 76 76 75 75 74 74 74 75 75 74 74 74 75 76 78 79
75 76 77 77 76 76 77 78 78 79 79 79 78 77 76 77 77 76 74 72 70 70 70 69 68 68 68 67 67 67 67 65 65 65 66 67 67 68 69 70 71 72 72 72 73 73 74 74 74 75 75 76 76 77 77 77 78 78 80 81 82 83 83 83 84 84 83 82 82 80 79 79 78 78 78 78 78 78 78 79 79 79 79 79 80 80
74 76 78 78 78 79 79 79 79 79 80 80 80 79 78 78 79 78 76 74 72 72 72 72 72 71 71 70 70 70 70 70 69 68 69 69 70 71 71 72 73 74 74 74 75 75 76 76 76 76 77 77 78 78 79 79 79 80 81 82 83 84 84 85 85 85 85 85 85 85 85 84 83 83 82 82 81 81 81 82 82 82 83 83 83 84
69 73 76 78 79 80 80 81 81 81 81 82 82 81 81 80 80 79 78 76 75 75 75 75 74 74 74 74 74 74 74 74 73 73 73 73 73 74 74 75 75 76 76 76 77 77 77 77 77 77 78 78 79 79 80 80 80 81 82 82 83 84 85 85 86 87 87 87 87 88 88 88 88 88 87 86 86 85 85 85 85 85 86 86 85 86
65 67 70 74 77 79 80 81 82 82 83 83 83 82 82 82 81 81 79 78 77 76 76 76 77 77 77 77 77 77 78 78 77 77 76 76 76 76 76 76 77 78 78 78 78 79 79 80 79 79 80 80 81 81 82 83 83 84 85 85 86 86 87 87 88 89 89 90 90 91 91 92 92 92 91 91 91 90 90 89 90 90 89 89 89 89
63 63 64 68 72 75 77 79 80 82 82 82 83 83 83 83 83 83 82 81 79 78 78 78 78 78 78 79 79 79 80 80 80 80 79 79 78 78 78 78 79 79 80 80 81 81 82 82 82 83 83 83 84 84 85 86 87 87 88 88 89 89 90 90 91 91 92 93 93 93 94 95 95 95 94 94 94 94 94 94 94 94 93 93 93 92
58 59 61 64 66 68 71 73 74 76 78 80 81 83 84 85 85 85 85 83 82 81 81 81 80 80 80 81 81 81 81 82 82 83 82 82 81 81 82 82 83 83 83 83 84 84 85 86 86 86 87 87 88 88 88 89 90 90 91 92 92 93 93 93 94 94 94 95 95 96 97 97 97 98 98 98 98 97 97 97 97 97 96 97 96 94
52 54 57 60 62 63 64 66 68 70 72 75 77 80 82 84 85 86 86 85 84 84 84 84 83 83 83 83 83 83 84 84 84 85 85 85 85 85 85 86 86 87 87 87 87 88 89 89 90 90 91 92 92 92 93 94 94 95 96 96 96 97 97 97 97 97 97 98 98 98 98 98 99 99 100 100 100 99 98 98 98 97 97 97 97 95
47 49 51 53 56 58 59 61 64 67 68 70 72 75 78 80 82 83 84 84 85 85 85 85 84 84 84 84 85 86 86 86 87 88 88 88 88 88 88 89 90 90 90 91 91 92 93 93 93 94 95 95 96 96 97 98 99 99 99 100 100 99 99 99 98 98 98 98 98 98 98 97 98 99 100 100 99 98 98 97 97 97 96 96 95 94
Wind_Direction
244 244 242 241 241 240 240 240 240 241 242 243 243 244 244 245 245 246 248 248 242 245 250 247 248 251 250 251 253 253 254 254 254 255 256 257 257 258 258 258 258 258 259 264 271 272 266 261 255 243 237 241 246 246 245 245 247 250 253 254 255 256 255 253 252 253 255 254 246 235 232 237 242 248 256 264 269 271 272 273 275 278 283 286 288 290
244 243 241 240 240 239 240 239 240 240 241 241 240 241 241 241 243 243 245 247 243 243 249 246 247 250 250 252 253 253 254 255 254 254 256 257 258 258 257 257 257 257 258 261 258 252 250 248 246 242 241 243 244 244 244 246 248 251 253 253 254 257 255 251 251 254 255 250 245 241 238 240 245 252 259 265 266 267 271 275 278 282 285 288 290 291
242 241 240 239 239 239 239 239 239 239 238 239 238 239 240 241 242 242 244 248 244 242 247 246 246 250 251 253 254 252 253 256 256 255 256 258 259 258 257 257 256 256 258 255 240 235 240 242 241 241 244 247 247 247 247 246 248 251 252 250 251 253 251 250 251 253 252 247 243 243 244 246 250 255 259 261 261 265 272 277 282 286 288 289 290 291
241 240 239 239 239 238 238 238 237 237 237 238 238 239 240 241 242 243 244 246 244 242 246 247 246 250 252 253 253 252 251 253 256 257 257 258 260 259 258 257 256 258 258 249 236 234 238 239 239 242 244 247 247 249 250 248 247 250 250 248 248 250 251 252 253 250 248 245 244 246 247 250 252 255 257 257 258 262 270 277 282 286 288 290 291 290
240 239 239 238 238 237 237 237 237 237 237 238 238 238 240 240 241 243 244 245 244 244 246 248 247 249 251 251 253 253 251 252 255 257 257 258 260 261 259 258 260 261 258 246 235 235 239 238 238 240 241 244 247 248 247 244 246 250 249 246 246 247 249 249 246 243 242 243 245 248 249 251 252 255 254 254 255 259 269 279 285 287 286 286 286 285
240 239 239 237 235 235 236 236 236 237 237 238 238 238 239 240 241 243 245 245 245 245 246 248 248 248 250 251 253 254 253 254 255 256 258 259 260 260 259 260 261 260 255 247 238 236 238 239 238 238 238 242 246 248 245 242 245 248 246 243 244 246 247 245 242 241 241 244 247 249 250 251 254 257 256 254 254 260 272 282 286 287 284 281 279 279
239 238 238 236 234 236 237 237 237 237 237 237 237 238 239 240 241 244 245 245 245 246 247 249 249 248 250 252 252 253 254 255 255 256 258 259 258 258 259 261 259 254 251 249 243 239 239 240 238 236 236 238 244 247 246 243 244 243 242 243 244 246 248 246 244 242 242 245 248 250 250 253 257 260 259 256 255 260 273 282 283 284 282 279 277 277
237 235 235 234 234 236 236 237 237 237 237 237 238 239 240 240 241 244 245 244 245 246 247 249 249 248 250 252 253 253 255 255 256 257 258 257 256 257 260 257 248 245 246 247 245 242 241 240 237 236 236 238 242 246 246 245 243 241 242 245 245 246 248 248 246 245 246 249 252 252 252 253 257 258 258 256 253 258 272 279 278 279 280 280 279 279
236 234 235 235 235 236 235 236 237 237 237 237 238 239 239 239 240 242 244 243 244 245 246 247 249 249 250 252 254 255 255 255 255 256 255 254 253 256 257 246 236 238 242 245 246 243 241 238 235 236 239 239 241 244 246 246 244 241 241 244 246 246 246 249 250 249 250 252 254 254 252 251 253 254 254 254 253 260 272 275 274 276 277 278 280 282
236 235 236 236 235 235 234 235 236 236 237 236 237 237 237 238 238 240 242 242 243 244 245 247 248 250 251 251 253 254 255 255 254 253 254 252 249 245 242 238 234 237 241 243 243 240 239 238 236 236 238 241 243 244 245 246 246 245 243 243 245 245 245 248 250 250 251 252 252 251 249 247 249 252 253 254 258 265 271 272 273 274 274 276 279 283
236 235 235 233 232 233 233 234 235 235 235 235 236 236 236 237 238 239 241 242 243 244 246 248 248 249 250 250 251 253 255 256 255 255 253 249 246 240 236 236 235 235 239 240 239 238 237 235 234 236 238 242 245 245 244 245 246 248 247 244 243 244 246 247 249 251 252 251 251 251 250 249 248 252 255 258 263 267 270 271 272 271 272 275 277 282
236 234 233 233 232 232 232 232 233 233 233 234 235 236 236 237 237 239 241 242 243 244 246 248 248 248 250 251 251 254 256 257 255 253 249 246 246 243 241 239 235 235 237 238 239 240 236 232 234 238 242 246 247 246 246 245 244 247 248 245 241 241 246 247 248 251 250 249 252 253 254 253 252 254 259 263 266 267 268 269 270 270 271 273 277 281
236 235 234 235 234 233 233 232 233 234 234 235 236 236 237 238 239 239 241 243 243 243 244 246 247 247 250 251 252 255 255 254 252 252 253 252 248 245 243 240 237 237 236 236 239 241 237 234 238 243 247 250 250 249 249 246 243 243 245 247 243 241 244 246 247 249 248 249 253 254 255 254 255 257 260 264 266 265 266 267 267 269 271 274 278 280
239 237 236 237 235 234 234 234 234 235 234 235 237 237 237 239 240 240 241 242 242 242 243 245 247 248 250 251 250 250 250 250 253 253 254 254 252 245 239 237 238 240 239 237 238 240 240 239 241 246 251 255 255 254 251 247 244 241 243 247 247 245 246 247 247 247 247 248 249 251 253 253 254 257 259 260 263 264 265 267 270 272 274 276 279 279
239 239 237 236 235 233 234 234 234 234 235 236 237 237 238 239 240 241 242 242 242 243 244 245 247 248 249 250 247 246 248 250 251 250 248 252 254 248 240 238 238 240 241 240 239 239 241 248 252 254 257 259 259 257 254 251 247 242 242 245 248 249 248 247 247 247 247 247 247 249 253 254 253 256 257 258 260 263 266 270 273 275 276 277 277 278
238 237 236 235 234 234 235 235 234 235 235 236 237 237 237 239 240 241 242 243 243 244 244 244 245 246 247 248 247 246 248 250 250 250 249 247 244 242 243 243 238 238 239 236 236 235 231 244 262 263 262 261 260 259 258 257 253 247 244 244 248 252 252 251 249 247 248 248 248 250 252 254 255 258 260 259 260 265 269 272 274 275 276 276 277 277
238 236 235 235 234 234 235 235 234 234 234 236 238 237 236 237 238 240 242 243 243 244 244 244 245 246 246 245 244 245 246 246 246 247 245 237 230 230 235 238 239 244 244 238 238 235 223 232 254 260 261 260 259 261 262 261 259 255 250 247 247 250 251 251 250 248 248 250 252 253 253 254 256 259 261 260 261 267 271 273 274 275 275 275 275 276
240 239 238 237 236 235 235 235 235 234 233 233 235 237 236 237 238 240 242 244 244 245 245 244 243 245 245 243 241 242 242 241 238 234 233 232 226 223 227 230 231 231 234 235 235 227 221 232 247 252 256 257 258 263 265 262 259 257 254 249 246 247 247 249 251 251 249 249 252 254 255 255 256 259 260 259 263 269 273 273 273 273 272 273 273 274
239 239 238 238 238 237 237 236 236 237 237 234 233 235 237 237 238 241 242 243 244 246 247 245 242 242 244 244 243 241 237 236 236 231 230 233 230 226 228 229 225 221 224 229 225 219 222 235 243 246 250 253 257 263 264 262 256 253 253 248 244 245 246 247 251 254 253 250 249 252 256 257 258 260 260 260 264 269 272 272 272 271 271 271 272 274
237 236 236 235 235 236 237 237 237 238 239 237 234 234 235 236 238 241 242 243 243 245 247 247 244 243 243 244 245 243 238 236 238 234 229 233 237 237 235 230 226 227 230 230 226 227 233 237 239 244 249 253 258 261 262 261 257 254 253 249 244 243 243 243 244 246 250 251 249 250 254 257 258 260 263 264 267 270 272 272 273 273 273 274 275 275
237 236 235 234 233 234 235 236 237 237 238 238 236 234 234 234 236 239 242 242 242 243 245 247 247 245 243 241 239 240 239 237 236 233 228 229 234 237 236 232 232 233 233 232 231 233 237 239 242 248 253 255 259 261 260 260 259 256 253 251 248 246 245 244 242 243 247 249 250 252 254 256 257 260 263 266 268 269 270 271 272 273 274 275 276 276
237 236 237 235 234 234 234 233 235 236 235 237 237 235 233 233 234 237 240 241 242 242 243 245 246 246 245 243 240 239 238 238 238 235 230 229 232 235 236 233 235 238 236 232 231 232 237 242 246 250 253 255 257 259 259 258 258 256 254 251 249 249 249 248 248 248 249 249 251 253 256 257 258 260 262 265 266 267 268 269 271 272 274 274 274 274
235 234 236 236 234 235 236 234 234 236 236 237 238 237 236 234 234 235 237 239 241 243 244 245 245 245 244 244 243 242 238 237 240 239 235 235 235 236 236 233 234 239 238 235 237 239 242 245 248 249 251 253 255 256 257 257 257 256 254 252 250 249 250 252 252 252 252 252 252 254 256 257 257 258 261 264 265 266 268 270 271 272 273 271 270 270
235 232 232 232 232 233 237 237 236 238 238 238 238 237 236 236 237 236 236 238 240 243 245 246 246 245 243 241 240 241 239 237 239 239 239 241 242 242 242 241 239 239 239 240 243 247 247 248 250 250 250 253 256 257 258 259 258 257 255 252 251 250 250 251 252 253 253 254 254 255 255 255 255 256 259 262 264 265 267 270 271 270 268 266 266 267
236 233 230 229 229 230 234 237 238 239 239 238 238 238 237 237 238 238 237 236 238 240 242 245 246 245 245 244 240 239 240 238 238 240 241 241 243 245 246 247 245 241 241 243 246 248 248 248 249 251 253 257 260 260 261 262 260 259 257 253 250 249 249 249 250 250 252 254 255 255 255 254 254 255 257 261 265 266 267 268 266 263 261 261 264 268
237 235 234 232 230 229 230 232 235 238 239 240 240 240 239 237 236 238 237 236 237 238 239 241 243 244 244 245 244 240 240 240 239 239 241 241 243 245 247 249 249 246 245 246 247 247 247 247 250 252 255 259 260 259 260 261 260 259 257 254 251 249 249 250 250 250 251 252 254 256 258 258 258 258 260 262 262 260 260 262 263 263 264 266 268 270
238 238 238 238 235 233 231 231 234 236 236 238 239 238 239 238 236 236 237 237 237 238 238 239 239 241 242 242 243 240 237 239 238 234 235 242 246 247 247 249 250 249 248 249 248 248 249 250 253 255 256 257 257 256 256 258 257 256 255 254 252 250 249 250 252 253 253 253 254 257 260 262 263 262 262 260 257 254 255 261 268 270 271 271 270 269
240 239 239 241 239 238 235 233 235 237 236 237 238 237 239 239 238 238 238 238 238 238 240 241 240 240 242 241 240 238 232 229 230 229 227 230 237 241 243 244 245 246 248 249 250 250 251 251 253 254 254 253 253 253 254 255 255 255 254 253 252 250 249 248 249 252 254 254 255 257 259 261 262 262 261 258 253 251 253 260 268 271 269 269 269 270
239 238 239 241 241 240 239 237 237 238 237 238 238 238 241 241 239 239 239 238 240 240 240 242 242 241 241 240 238 238 233 228 227 227 227 228 231 233 232 235 241 246 248 248 248 248 248 248 248 249 249 249 250 250 251 251 252 251 249 246 245 245 245 243 239 240 245 247 248 251 254 255 254 255 256 256 254 254 256 259 264 268 267 264 264 267
237 237 237 239 240 239 240 240 240 240 238 238 239 240 243 242 239 237 238 238 240 243 242 241 242 242 240 239 238 237 236 234 232 230 229 229 229 226 226 233 242 247 248 247 245 245 246 246 246 247 248 248 248 247 246 246 246 245 243 242 243 244 245 244 240 237 236 234 233 236 241 245 245 246 249 254 258 260 262 262 261 263 262 258 258 263
238 237 236 237 238 238 238 240 241 242 241 240 240 240 243 245 243 239 239 237 236 240 244 242 240 239 240 241 241 239 238 237 235 232 229 226 224 223 226 233 239 242 243 245 245 245 245 246 246 245 246 246 245 245 245 245 244 242 242 245 246 246 245 244 242 238 235 233 231 233 236 239 242 245 249 253 256 258 261 262 260 258 257 255 257 261
239 238 236 236 238 238 238 239 241 242 243 243 243 243 243 245 245 242 239 236 231 231 238 241 240 239 239 240 241 240 237 234 230 225 221 220 222 224 227 229 233 237 241 245 247 247 246 247 246 244 245 245 244 244 246 248 248 248 249 250 250 249 248 245 242 239 237 237 237 238 240 242 245 247 248 249 250 250 252 254 255 256 257 259 260 261
236 238 238 237 238 239 238 238 240 240 241 243 244 245 245 244 244 243 240 237 234 230 232 236 238 238 237 236 237 238 236 232 226 219 216 218 222 225 227 228 230 235 239 243 246 248 248 248 247 246 245 246 246 246 247 249 251 252 253 253 253 253 252 249 245 241 239 239 240 241 244 246 247 248 248 247 247 247 247 248 250 252 254 257 260 261
233 235 236 236 237 239 238 238 239 239 239 240 241 243 245 245 245 244 242 240 238 236 236 237 238 239 237 235 235 237 236 235 231 225 221 222 222 224 227 229 230 233 237 240 245 248 248 248 247 247 247 248 248 249 250 251 251 252 252 253 253 253 252 251 250 248 246 244 244 244 245 246 247 248 248 248 247 247 248 248 249 250 251 253 255 258
235 235 236 236 237 239 239 238 238 237 237 238 239 240 242 244 245 244 243 243 242 242 242 241 241 241 240 239 238 237 237 238 237 233 230 229 228 229 231 232 233 237 240 244 247 248 248 249 249 249 249 250 251 252 253 253 253 254 254 254 254 254 254 253 253 252 252 251 249 248 247 248 248 249 249 249 249 249 249 250 250 251 251 252 254 256
236 237 237 238 239 240 240 239 239 238 237 237 238 239 241 243 244 244 244 243 244 244 245 245 245 244 242 241 241 240 239 239 240 239 238 236 235 236 237 238 239 242 244 247 248 248 249 250 252 252 252 252 253 255 255 256 257 257 257 257 257 256 256 255 255 255 254 253 252 251 249 248 249 250 251 252 251 251 252 253 253 253 254 254 255 256
235 237 238 238 239 240 241 242 242 241 240 239 239 240 241 243 244 245 244 244 244 244 245 246 247 247 245 244 243 242 242 242 241 242 242 242 242 243 243 244 246 247 248 249 250 250 251 253 254 255 255 256 257 259 259 260 261 261 261 261 260 259 258 257 256 256 255 255 254 253 252 250 250 251 252 252 253 253 254 255 256 256 257 257 258 259
234 235 236 237 237 239 240 242 243 243 242 242 242 242 243 243 244 245 245 244 244 244 246 246 247 248 248 247 246 245 245 246 246 245 246 246 246 247 247 247 248 249 250 251 252 253 255 256 257 259 261 262 263 264 264 265 265 265 265 265 264 262 261 259 258 257 257 256 255 254 254 253 253 253 253 253 253 254 254 255 256 256 257 258 259 260
232 233 235 236 237 237 238 240 242 243 243 243 243 244 244 244 245 245 245 245 245 245 246 247 248 248 249 249 249 248 247 247 248 249 248 248 248 249 249 250 251 251 252 253 255 256 258 260 262 264 266 267 268 268 268 268 269 269 269 269 269 268 267 266 264 262 261 259 258 257 256 255 254 254 254 253 253 253 254 254 255 256 257 258 258 259
233 233 234 235 236 237 238 240 242 243 243 243 243 243 244 244 244 245 245 246 246 245 246 247 248 250 251 252 252 251 249 248 248 248 248 248 248 249 250 250 251 252 252 253 255 257 258 260 262 263 265 266 267 268 269 269 269 270 270 270 271 271 271 271 270 269 268 266 265 263 261 259 257 256 255 255 254 254 254 254 255 256 256 257 258 259
235 234 234 235 236 236 237 240 242 243 243 243 243 244 245 245 245 245 246 247 248 248 247 248 249 250 252 253 253 253 252 250 250 249 249 248 249 250 250 251 251 251 251 252 253 255 257 258 260 261 262 263 265 266 267 267 267 267 268 268 269 270 270 271 270 270 270 270 270 269 267 265 262 260 258 258 257 256 255 255 256 257 258 258 259 260
236 236 236 236 236 237 238 240 242 243 244 244 244 244 246 247 247 247 247 248 249 249 249 249 250 251 252 252 253 253 253 252 252 252 252 252 252 252 252 253 252 252 251 252 253 254 256 257 259 259 260 261 262 263 264 265 266 267 267 268 269 269 270 270 270 269 269 269 269 270 270 269 268 266 265 263 262 261 259 257 256 257 259 260 261 261
237 237 237 238 238 238 239 240 242 244 245 246 245 245 246 248 248 248 247 248 249 250 250 250 250 251 252 252 252 253 253 252 252 252 253 254 254 254 254 254 255 255 254 254 254 255 256 257 258 259 259 260 261 262 262 264 266 267 269 270 270 270 271 271 272 272 272 271 270 269 269 269 269 269 268 268 268 267 266 264 262 262 262 262 263 263
237 237 238 239 239 239 240 241 242 244 246 246 247 246 247 248 249 249 249 249 249 250 251 251 251 251 251 252 252 253 254 253 252 252 252 253 253 254 254 254 255 256 256 256 256 256 257 257 258 259 260 261 261 262 263 263 265 266 267 269 270 271 272 272 273 274 275 275 274 273 272 271 270 269 269 269 269 268 269 268 268 267 267 267 267 266
239 239 239 240 240 240 241 242 243 244 245 247 248 248 248 248 249 250 250 250 249 250 250 251 252 252 252 253 253 253 253 253 252 252 252 253 253 253 254 254 255 255 256 257 257 258 258 259 259 260 261 261 262 263 264 264 264 265 266 266 267 269 270 271 272 273 274 275 276 276 275 275 274 273 272 272 271 270 270 269 269 268 268 268 268 268
243 242 242 242 242 242 242 243 243 244 245 247 248 249 249 250 250 251 251 251 250 250 251 251 252 252 253 253 254 254 254 253 253 252 252 253 254 254 255 256 256 257 258 258 259 260 261 261 261 262 262 263 263 264 264 265 265 265 265 266 266 267 268 269 270 271 271 272 273 273 274 274 274 274 274 273 273 272 272 271 271 270 269 268 268 268
244 243 242 243 244 244 244 244 245 245 246 247 249 250 251 252 252 253 253 252 252 252 252 252 253 253 253 254 254 255 256 257 257 257 256 256 256 256 256 257 258 258 259 260 260 261 262 262 262 262 263 263 263 264 264 265 265 265 265 265 266 266 267 267 268 269 269 270 270 271 272 272 273 273 273 274 273 273 273 273 272 272 271 271 270 269
244 244 243 243 243 244 244 245 246 246 247 248 250 251 252 253 254 255 255 255 254 254 253 253 253 254 254 255 255 256 257 258 260 260 261 261 261 261 261 260 260 261 261 261 262 262 263 263 264 264 264 264 265 265 265 266 266 267 267 267 268 268 268 268 269 269 270 270 271 272 272 273 273 274 274 274 275 275 274 274 274 274 273 272 271 271
246 246 245 245 244 244 245 245 246 247 247 248 249 251 252 253 254 255 256 256 256 256 255 255 254 254 254 255 255 255 256 257 258 259 260 261 261 262 262 262 263 263 263 264 264 265 265 266 267 267 267 268 268 268 269 269 269 270 270 270 270 270 270 271 271 271 271 272 272 272 273 273 274 274 275 275 275 275 274 274 274 274 274 273 273 272
247 247 247 246 246 246 246 247 247 247 247 247 248 249 250 251 253 254 255 256 257 257 256 256 256 255 255 255 255 256 256 256 257 258 258 259 259 260 261 261 262 262 263 264 264 265 265 266 266 267 267 268 269 269 270 270 270 271 271 271 271 271 271 271 271 272 272 272 272 272 273 273 273 274 274 274 274 274 274 273 273 273 273 272 272 272
248 247 247 247 248 248 248 248 247 247 247 247 247 248 249 249 251 252 253 254 255 256 256 257 257 257 257 257 257 257 257 257 257 258 259 259 259 260 260 261 262 262 263 263 264 264 264 265 265 266 267 267 268 268 269 269 270 270 270 271 271 271 271 271 271 272 272 272 272 272 273 273 273 273 273 273 273 273 273 273 273 272 272 272 272 272
Height
10560 10564 10567 10569 10572 10574 10577 10582 10583 10585 10590 10595 10600 10602 10605 10609 10609 10613 10612 10612 10625 10630 10628 10635 10630 10627 10634 10635 10638 10646 10649 10651 10654 10657 10661 10663 10667 10676 10681 10683 10685 10685 10688 10697 10708 10711 10705 10701 10696 10691 10686 10681 10678 10680 10682 10682 10679 10680 10685 10690 10694 10697 10696 10694 10694 10694 10694 10694 10695 10694 10693 10692 10693 10694 10693 10691 10689 10688 10687 10686 10685 10685 10685 10685 10684 10684
10556 10558 10561 10563 10565 10569 10573 10576 10577 10583 10587 10589 10592 10594 10597 10601 10601 10607 10605 10602 10621 10630 10620 10624 10625 10621 10627 10631 10634 10641 10644 10644 10648 10653 10656 10657 10663 10672 10675 10677 10678 10678 10684 10695 10701 10699 10692 10685 10682 10682 10680 10674 10672 10675 10677 10678 10678 10681 10686 10689 10691 10691 10689 10689 10691 10690 10690 10690 10689 10689 10688 10689 10689 10690 10689 10687 10686 10685 10684 10683 10682 10682 10682 10682 10681 10681
10551 10552 10555 10557 10560 10565 10568 10570 10573 10577 10580 10580 10584 10588 10591 10595 10596 10601 10599 10599 10619 10623 10610 10615 10619 10617 10623 10627 10628 10636 10640 10637 10640 10648 10651 10653 10659 10666 10669 10671 10671 10673 10681 10689 10689 10685 10677 10671 10674 10677 10674 10669 10670 10673 10675 10677 10678 10681 10684 10686 10686 10685 10683 10685 10686 10686 10685 10684 10684 10683 10683 10684 10685 10685 10684 10683 10682 10681 10680 10679 10678 10678 10678 10678 10678 10678
10545 10547 10550 10553 10557 10562 10562 10564 10568 10570 10572 10575 10580 10584 10586 10589 10592 10594 10593 10598 10612 10612 10603 10609 10614 10615 10619 10621 10622 10630 10635 10632 10635 10641 10645 10649 10654 10659 10662 10663 10664 10669 10678 10680 10677 10672 10665 10664 10671 10672 10669 10666 10666 10668 10669 10671 10675 10678 10680 10681 10681 10680 10679 10679 10680 10680 10679 10679 10678 10677 10678 10679 10679 10679 10679 10678 10678 10677 10676 10675 10675 10674 10674 10674 10673 10674
10540 10543 10546 10549 10554 10556 10555 10559 10563 10565 10568 10571 10576 10580 10581 10584 10588 10587 10588 10596 10604 10604 10600 10602 10609 10612 10613 10614 10617 10624 10627 10629 10633 10636 10641 10645 10649 10653 10654 10655 10660 10665 10669 10668 10664 10659 10654 10660 10667 10666 10663 10660 10658 10661 10663 10666 10670 10672 10674 10675 10674 10673 10673 10673 10673 10673 10673 10672 10671 10671 10672 10673 10674 10675 10675 10674 10673 10673 10672 10671 10671 10670 10670 10670 10670 10671
10536 10539 10542 10546 10549 10548 10549 10555 10558 10560 10564 10568 10572 10575 10577 10580 10583 10581 10584 10592 10596 10597 10595 10597 10604 10608 10607 10609 10613 10617 10621 10626 10630 10632 10636 10641 10644 10645 10645 10651 10657 10657 10657 10655 10652 10649 10649 10658 10662 10659 10656 10652 10652 10655 10658 10662 10665 10666 10667 10668 10668 10667 10666 10666 10667 10668 10667 10665 10665 10666 10666 10667 10669 10670 10670 10670 10669 10669 10668 10668 10667 10667 10667 10667 10667 10668
10532 10536 10538 10541 10542 10542 10547 10551 10553 10556 10560 10564 10567 10570 10573 10576 10578 10577 10581 10587 10589 10590 10591 10593 10599 10601 10602 10605 10608 10611 10616 10621 10625 10628 10632 10635 10638 10639 10641 10648 10650 10649 10648 10644 10642 10643 10647 10654 10656 10652 10649 10648 10648 10649 10652 10657 10659 10661 10661 10661 10662 10662 10662 10662 10663 10664 10663 10661 10660 10661 10662 10664 10665 10665 10666 10666 10665 10665 10664 10664 10664 10664 10664 10664 10664 10665
10528 10532 10532 10534 10537 10540 10544 10547 10549 10553 10556 10560 10563 10566 10569 10573 10574 10574 10577 10582 10583 10584 10587 10589 10592 10595 10597 10600 10602 10607 10612 10617 10621 10624 10626 10629 10632 10634 10640 10645 10643 10641 10640 10635 10634 10638 10642 10648 10649 10647 10645 10644 10644 10643 10646 10652 10655 10657 10657 10657 10658 10658 10659 10659 10659 10660 10659 10658 10656 10656 10658 10660 10660 10661 10661 10661 10661 10661 10661 10661 10661 10661 10661 10661 10661 10662
10525 10527 10527 10530 10534 10537 10540 10542 10545 10549 10552 10556 10559 10562 10565 10567 10570 10570 10571 10576 10577 10579 10582 10584 10586 10590 10593 10595 10598 10603 10608 10612 10616 10618 10620 10624 10628 10633 10637 10638 10636 10633 10631 10628 10629 10633 10638 10642 10643 10643 10642 10640 10638 10639 10643 10647 10650 10652 10652 10653 10653 10653 10655 10655 10654 10655 10654 10653 10651 10651 10653 10654 10655 10656 10656 10657 10657 10657 10657 10657 10657 10657 10658 10658 10659 10660
10521 10522 10524 10528 10531 10532 10535 10538 10542 10545 10548 10552 10554 10556 10559 10562 10564 10565 10567 10569 10570 10574 10578 10579 10582 10586 10588 10590 10594 10599 10602 10607 10610 10613 10615 10618 10623 10630 10632 10629 10627 10624 10622 10622 10624 10629 10635 10637 10637 10638 10637 10634 10633 10635 10639 10641 10643 10644 10646 10647 10647 10649 10651 10650 10649 10649 10649 10649 10647 10645 10647 10649 10650 10650 10651 10652 10653 10653 10653 10653 10653 10654 10654 10654 10655 10656
10517 10518 10520 10523 10524 10526 10531 10535 10538 10540 10543 10547 10549 10551 10554 10557 10559 10560 10562 10564 10566 10571 10574 10575 10578 10581 10582 10586 10591 10595 10597 10601 10605 10608 10610 10610 10615 10624 10625 10621 10619 10618 10618 10619 10622 10628 10632 10632 10632 10633 10631 10628 10628 10631 10635 10637 10638 10638 10640 10641 10642 10644 10646 10645 10646 10646 10646 10646 10643 10642 10644 10644 10645 10645 10646 10647 10648 10648 10648 10648 10649 10649 10650 10651 10652 10653
10512 10514 10515 10516 10519 10524 10528 10531 10531 10534 10539 10542 10543 10546 10550 10552 10554 10557 10558 10559 10563 10569 10570 10570 10573 10576 10577 10582 10588 10592 10594 10596 10599 10602 10604 10605 10610 10617 10617 10615 10614 10614 10616 10617 10621 10625 10628 10628 10628 10628 10626 10624 10623 10627 10630 10632 10634 10633 10634 10636 10637 10639 10641 10642 10642 10643 10643 10642 10640 10639 10639 10639 10639 10640 10642 10643 10643 10643 10643 10644 10644 10644 10645 10646 10647 10649
10508 10509 10510 10513 10517 10522 10524 10525 10527 10532 10536 10538 10539 10543 10546 10548 10551 10553 10554 10556 10561 10563 10564 10565 10569 10571 10573 10579 10586 10589 10589 10590 10593 10596 10598 10601 10607 10612 10612 10610 10610 10611 10613 10616 10619 10622 10624 10625 10625 10623 10621 10619 10620 10622 10623 10626 10628 10628 10628 10630 10632 10634 10636 10637 10638 10639 10639 10639 10636 10635 10633 10633 10634 10635 10637 10637 10638 10638 10638 10639 10639 10639 10640 10641 10643 10644
10504 10505 10508 10511 10515 10518 10519 10521 10525 10529 10532 10533 10536 10540 10543 10545 10547 10549 10551 10553 10556 10557 10559 10562 10565 10568 10570 10576 10583 10585 10584 10585 10589 10593 10595 10596 10601 10607 10608 10606 10606 10608 10611 10614 10616 10618 10621 10622 10621 10620 10617 10615 10615 10616 10617 10619 10622 10624 10624 10625 10627 10629 10630 10631 10632 10633 10635 10635 10633 10630 10628 10628 10629 10631 10632 10633 10633 10633 10634 10634 10634 10634 10635 10636 10638 10639
10500 10502 10505 10507 10510 10513 10514 10517 10521 10525 10528 10530 10532 10536 10539 10541 10543 10544 10546 10549 10551 10553 10556 10559 10562 10565 10567 10573 10579 10581 10581 10583 10586 10589 10591 10593 10596 10599 10599 10600 10603 10605 10607 10610 10612 10614 10619 10621 10620 10617 10614 10611 10610 10610 10612 10614 10617 10619 10621 10622 10622 10624 10625 10624 10624 10626 10629 10630 10627 10626 10625 10624 10625 10626 10627 10628 10627 10628 10628 10629 10629 10630 10630 10631 10632 10634
10496 10497 10500 10502 10505 10508 10510 10514 10518 10522 10525 10526 10528 10533 10535 10536 10538 10540 10541 10544 10547 10549 10553 10556 10558 10561 10564 10569 10573 10575 10578 10580 10580 10583 10588 10591 10592 10592 10593 10595 10598 10600 10602 10606 10607 10611 10617 10620 10617 10613 10610 10607 10604 10605 10606 10608 10611 10614 10617 10620 10622 10621 10618 10617 10618 10620 10623 10623 10621 10621 10621 10620 10620 10621 10621 10622 10622 10622 10623 10623 10624 10624 10625 10626 10626 10628
10491 10493 10495 10498 10501 10504 10506 10510 10514 10517 10520 10522 10525 10528 10530 10531 10533 10535 10536 10540 10543 10545 10548 10552 10555 10557 10560 10565 10568 10570 10574 10576 10576 10579 10582 10585 10587 10589 10590 10591 10593 10596 10599 10601 10602 10607 10612 10613 10611 10607 10604 10601 10598 10598 10600 10604 10607 10610 10613 10620 10621 10617 10612 10611 10613 10615 10616 10617 10617 10616 10616 10615 10615 10615 10615 10616 10616 10616 10617 10617 10618 10618 10619 10620 10620 10622
10487 10489 10492 10494 10497 10500 10502 10506 10510 10512 10515 10518 10521 10523 10525 10528 10530 10530 10532 10535 10538 10541 10544 10548 10551 10552 10554 10559 10563 10566 10570 10572 10572 10575 10577 10578 10581 10583 10585 10588 10590 10594 10596 10596 10596 10601 10603 10605 10605 10602 10596 10594 10593 10593 10595 10601 10608 10609 10610 10617 10619 10613 10609 10609 10609 10609 10610 10612 10612 10611 10610 10610 10609 10609 10610 10611 10610 10610 10610 10611 10612 10613 10613 10614 10614 10615
10484 10486 10488 10491 10494 10496 10498 10502 10506 10508 10510 10514 10516 10518 10521 10524 10526 10527 10528 10531 10534 10536 10538 10541 10545 10546 10549 10554 10559 10563 10568 10568 10568 10570 10571 10572 10575 10577 10580 10584 10586 10588 10589 10588 10589 10593 10597 10599 10599 10594 10590 10589 10589 10588 10590 10596 10603 10605 10605 10612 10615 10613 10612 10612 10609 10605 10603 10604 10606 10605 10604 10603 10603 10604 10604 10604 10605 10605 10605 10605 10606 10607 10607 10608 10608 10609
10480 10482 10484 10487 10489 10491 10494 10499 10502 10503 10505 10507 10510 10513 10517 10519 10521 10523 10524 10526 10530 10531 10533 10535 10538 10541 10545 10550 10554 10559 10564 10565 10563 10565 10567 10568 10570 10572 10575 10578 10580 10581 10580 10580 10582 10585 10590 10593 10590 10586 10584 10584 10584 10584 10586 10589 10593 10596 10598 10603 10607 10608 10609 10610 10608 10602 10597 10596 10598 10599 10599 10598 10598 10598 10598 10598 10599 10600 10599 10599 10600 10601 10601 10601 10602 10602
10475 10477 10479 10482 10485 10488 10491 10494 10496 10497 10499 10501 10504 10508 10511 10514 10516 10517 10518 10521 10524 10526 10527 10529 10531 10536 10541 10545 10549 10554 10557 10558 10559 10562 10565 10566 10568 10569 10571 10573 10574 10575 10574 10574 10576 10578 10581 10583 10582 10580 10579 10580 10580 10580 10581 10583 10585 10588 10591 10594 10596 10598 10599 10600 10600 10598 10594 10592 10592 10593 10594 10594 10594 10595 10594 10594 10594 10594 10593 10593 10594 10595 10595 10595 10595 10595
10471 10474 10475 10479 10482 10484 10486 10488 10489 10491 10493 10494 10498 10502 10506 10509 10511 10512 10514 10517 10518 10519 10522 10523 10525 10530 10535 10539 10544 10549 10550 10552 10554 10558 10562 10565 10566 10566 10566 10568 10569 10569 10568 10569 10571 10573 10574 10575 10576 10575 10575 10575 10576 10576 10577 10578 10580 10582 10584 10586 10588 10589 10589 10591 10592 10592 10591 10590 10588 10589 10590 10590 10591 10591 10591 10590 10589 10588 10588 10588 10589 10589 10589 10590 10590 10589
10468 10470 10471 10475 10478 10478 10479 10482 10484 10486 10488 10490 10494 10498 10500 10503 10505 10507 10509 10511 10512 10514 10517 10518 10521 10526 10529 10533 10538 10542 10545 10548 10550 10554 10557 10558 10561 10562 10561 10563 10564 10564 10563 10563 10565 10567 10569 10570 10571 10571 10571 10571 10572 10572 10573 10574 10575 10576 10578 10580 10581 10583 10584 10585 10585 10586 10586 10586 10586 10585 10585 10586 10587 10587 10586 10585 10584 10582 10582 10582 10583 10584 10584 10584 10585 10585
10464 10466 10467 10469 10472 10473 10474 10478 10481 10481 10483 10487 10489 10491 10494 10498 10499 10501 10503 10505 10507 10510 10511 10512 10515 10521 10525 10528 10532 10536 10540 10544 10546 10549 10551 10552 10554 10555 10556 10558 10559 10559 10558 10558 10559 10560 10562 10564 10565 10566 10566 10566 10566 10567 10568 10569 10570 10570 10572 10573 10575 10577 10578 10580 10580 10580 10581 10582 10582 10581 10581 10582 10583 10582 10582 10581 10579 10577 10576 10576 10577 10577 10577 10578 10579 10580
10458 10460 10463 10464 10466 10469 10471 10474 10476 10476 10478 10482 10483 10485 10490 10493 10493 10494 10497 10501 10503 10504 10506 10507 10510 10515 10519 10522 10526 10532 10536 10539 10542 10545 10546 10547 10548 10548 10549 10551 10553 10554 10553 10553 10553 10554 10555 10557 10558 10559 10559 10559 10560 10561 10562 10563 10563 10563 10564 10566 10567 10570 10572 10574 10574 10575 10576 10576 10576 10575 10575 10577 10577 10577 10578 10578 10574 10569 10568 10568 10569 10570 10571 10572 10574 10575
10452 10455 10458 10460 10462 10464 10466 10469 10470 10472 10475 10477 10478 10481 10484 10486 10487 10489 10492 10495 10497 10499 10501 10503 10506 10510 10513 10516 10522 10528 10531 10533 10535 10537 10538 10539 10541 10543 10544 10545 10546 10547 10547 10547 10548 10549 10550 10551 10552 10552 10553 10553 10554 10555 10555 10555 10556 10556 10556 10558 10560 10563 10565 10567 10568 10570 10570 10569 10569 10569 10570 10571 10571 10571 10573 10572 10565 10560 10560 10562 10563 10564 10566 10567 10568 10569
10447 10452 10455 10457 10459 10460 10461 10464 10465 10467 10470 10470 10473 10476 10477 10478 10482 10484 10486 10490 10491 10492 10494 10497 10501 10504 10506 10511 10518 10523 10526 10527 10529 10531 10532 10535 10538 10540 10540 10541 10540 10539 10540 10540 10541 10542 10543 10544 10544 10545 10546 10547 10548 10548 10548 10548 10548 10549 10550 10551 10553 10556 10559 10561 10562 10562 10562 10562 10563 10564 10566 10567 10565 10563 10564 10562 10558 10556 10556 10557 10558 10558 10559 10559 10559 10559
10444 10448 10450 10452 10453 10454 10457 10459 10459 10461 10464 10466 10469 10471 10470 10473 10477 10479 10482 10485 10485 10487 10489 10491 10496 10499 10501 10506 10511 10516 10521 10523 10523 10525 10528 10530 10533 10534 10535 10535 10532 10530 10531 10532 10533 10534 10535 10536 10537 10538 10539 10540 10540 10541 10541 10540 10541 10542 10543 10544 10546 10549 10554 10556 10557 10556 10555 10556 10558 10559 10561 10562 10558 10553 10553 10553 10552 10552 10552 10553 10553 10552 10551 10550 10550 10550
10439 10443 10446 10446 10447 10449 10452 10453 10454 10456 10459 10461 10464 10464 10465 10469 10473 10475 10477 10479 10480 10483 10485 10486 10489 10493 10495 10498 10501 10505 10512 10515 10517 10521 10523 10524 10525 10525 10526 10526 10524 10522 10523 10524 10524 10526 10527 10528 10530 10530 10531 10532 10533 10534 10534 10534 10534 10535 10536 10537 10539 10543 10547 10551 10552 10552 10551 10552 10553 10554 10555 10555 10550 10545 10544 10544 10545 10546 10547 10548 10547 10544 10544 10544 10543 10544
10434 10437 10440 10440 10441 10444 10446 10447 10448 10450 10453 10456 10458 10459 10460 10463 10467 10469 10471 10474 10476 10477 10478 10480 10483 10485 10487 10491 10494 10498 10503 10507 10512 10517 10518 10518 10518 10517 10518 10519 10517 10516 10515 10515 10517 10518 10519 10520 10522 10522 10522 10524 10525 10527 10527 10527 10528 10528 10529 10530 10533 10536 10541 10545 10547 10548 10548 10548 10548 10549 10550 10548 10545 10542 10540 10539 10540 10540 10541 10542 10539 10537 10537 10538 10537 10537
10428 10431 10433 10434 10435 10437 10439 10440 10442 10444 10447 10450 10452 10453 10455 10457 10460 10463 10466 10469 10471 10471 10472 10474 10475 10477 10481 10485 10488 10493 10497 10501 10505 10508 10509 10509 10509 10509 10511 10512 10511 10509 10508 10508 10509 10510 10511 10512 10513 10513 10514 10515 10517 10518 10519 10520 10522 10521 10522 10523 10526 10529 10533 10538 10541 10544 10544 10544 10544 10545 10545 10543 10541 10540 10538 10537 10537 10536 10535 10534 10532 10529 10529 10529 10529 10530
10421 10422 10426 10427 10427 10430 10432 10434 10437 10439 10441 10444 10446 10447 10449 10451 10453 10456 10459 10462 10464 10465 10466 10466 10467 10471 10476 10479 10482 10486 10489 10492 10495 10496 10498 10499 10500 10500 10503 10504 10503 10503 10502 10501 10502 10502 10504 10504 10504 10505 10506 10507 10509 10511 10512 10514 10514 10514 10514 10516 10518 10521 10525 10529 10533 10537 10538 10538 10538 10539 10537 10535 10534 10533 10532 10532 10531 10530 10530 10528 10523 10521 10520 10520 10521 10522
10414 10414 10417 10419 10420 10421 10424 10428 10431 10433 10435 10438 10439 10440 10441 10443 10445 10448 10451 10454 10457 10458 10459 10459 10461 10465 10470 10474 10476 10478 10480 10482 10486 10488 10490 10492 10492 10494 10496 10497 10497 10496 10496 10496 10496 10496 10497 10497 10496 10498 10500 10501 10503 10504 10505 10505 10506 10506 10506 10508 10509 10511 10514 10517 10522 10525 10527 10528 10529 10528 10527 10525 10525 10523 10522 10521 10521 10521 10521 10519 10516 10513 10513 10513 10513 10513
10406 10406 10408 10411 10412 10413 10418 10423 10425 10425 10428 10432 10432 10431 10431 10434 10438 10440 10443 10446 10448 10449 10451 10453 10455 10458 10463 10467 10469 10470 10471 10474 10479 10483 10485 10486 10488 10489 10490 10489 10489 10490 10490 10491 10490 10489 10489 10489 10488 10490 10493 10495 10496 10496 10496 10495 10495 10496 10497 10499 10500 10501 10503 10506 10509 10513 10516 10517 10518 10518 10516 10515 10514 10512 10511 10510 10510 10510 10511 10510 10508 10506 10506 10506 10506 10506
10397 10398 10400 10404 10406 10406 10411 10416 10416 10417 10421 10423 10421 10421 10423 10427 10430 10433 10435 10437 10439 10441 10443 10445 10448 10452 10456 10459 10460 10462 10464 10467 10471 10476 10478 10480 10482 10482 10481 10481 10482 10482 10482 10483 10483 10482 10481 10481 10481 10482 10485 10486 10486 10486 10485 10485 10485 10487 10488 10489 10490 10492 10494 10496 10498 10501 10504 10505 10507 10508 10507 10505 10503 10502 10501 10501 10500 10500 10501 10500 10499 10498 10498 10498 10498 10498
10389 10391 10395 10398 10399 10400 10404 10407 10407 10409 10412 10412 10412 10414 10417 10421 10423 10424 10427 10430 10431 10433 10435 10436 10440 10444 10448 10450 10451 10454 10457 10459 10462 10466 10469 10472 10474 10474 10474 10475 10474 10475 10476 10476 10476 10475 10474 10473 10473 10473 10474 10475 10475 10476 10476 10476 10477 10478 10479 10479 10480 10482 10484 10487 10488 10489 10491 10494 10496 10497 10498 10497 10495 10493 10493 10492 10492 10491 10491 10491 10491 10490 10489 10489 10488 10488
10381 10384 10388 10390 10392 10395 10398 10399 10400 10401 10403 10404 10407 10409 10411 10413 10415 10417 10420 10422 10423 10425 10427 10429 10432 10435 10439 10442 10444 10446 10449 10452 10455 10458 10460 10463 10465 10466 10467 10467 10467 10468 10468 10467 10468 10468 10466 10465 10465 10464 10464 10465 10466 10467 10468 10469 10469 10469 10468 10468 10469 10470 10474 10477 10478 10479 10481 10484 10484 10485 10486 10487 10486 10485 10485 10484 10483 10483 10483 10483 10482 10480 10479 10479 10479 10478
10374 10377 10380 10383 10385 10388 10390 10390 10390 10391 10394 10398 10402 10403 10405 10406 10407 10410 10412 10412 10415 10418 10420 10421 10424 10426 10429 10433 10436 10438 10442 10445 10448 10451 10453 10455 10455 10456 10457 10457 10457 10458 10458 10457 10458 10459 10457 10456 10456 10455 10454 10455 10456 10458 10459 10458 10458 10458 10457 10456 10456 10458 10462 10466 10467 10468 10470 10471 10471 10473 10475 10477 10477 10477 10476 10474 10474 10474 10474 10473 10472 10471 10471 10470 10469 10468
10365 10369 10372 10375 10378 10380 10382 10381 10380 10382 10387 10391 10394 10395 10396 10398 10399 10401 10403 10404 10407 10411 10412 10413 10415 10418 10420 10424 10428 10431 10435 10438 10441 10443 10445 10446 10445 10445 10446 10447 10448 10448 10448 10448 10448 10448 10447 10447 10447 10447 10446 10446 10446 10447 10447 10447 10447 10446 10446 10444 10444 10447 10451 10452 10453 10455 10457 10457 10458 10461 10463 10465 10467 10466 10464 10463 10463 10463 10463 10463 10462 10461 10462 10461 10459 10458
10357 10362 10365 10368 10370 10372 10374 10372 10371 10374 10378 10381 10385 10386 10385 10387 10390 10392 10394 10396 10399 10403 10405 10406 10407 10410 10413 10417 10420 10423 10427 10430 10432 10432 10433 10434 10434 10435 10436 10438 10439 10440 10441 10440 10440 10440 10439 10439 10439 10439 10439 10437 10436 10436 10437 10437 10438 10438 10436 10434 10434 10437 10438 10438 10438 10440 10441 10443 10445 10447 10450 10452 10454 10454 10452 10451 10451 10452 10452 10452 10452 10450 10450 10450 10449 10447
10350 10354 10359 10360 10360 10362 10364 10363 10363 10367 10369 10372 10377 10377 10376 10377 10382 10385 10387 10389 10392 10396 10399 10399 10402 10404 10407 10410 10412 10413 10416 10419 10420 10420 10422 10424 10425 10425 10427 10429 10430 10431 10432 10433 10432 10432 10431 10431 10431 10431 10430 10430 10429 10428 10428 10427 10428 10429 10427 10425 10425 10426 10426 10426 10426 10427 10428 10430 10432 10433 10435 10437 10438 10440 10440 10440 10440 10440 10441 10442 10442 10439 10439 10440 10438 10435
10343 10348 10351 10351 10352 10354 10356 10355 10355 10358 10361 10364 10368 10370 10369 10369 10374 10379 10381 10382 10386 10389 10390 10392 10396 10398 10399 10401 10403 10403 10405 10409 10411 10411 10412 10413 10415 10417 10418 10419 10420 10421 10422 10423 10423 10423 10423 10423 10422 10422 10421 10421 10421 10420 10419 10418 10418 10417 10416 10415 10415 10415 10415 10414 10413 10413 10416 10419 10419 10420 10422 10423 10424 10426 10427 10427 10427 10427 10428 10430 10431 10430 10429 10429 10427 10424
10337 10340 10340 10341 10345 10348 10348 10347 10348 10350 10353 10356 10360 10362 10362 10362 10365 10369 10373 10375 10379 10380 10381 10385 10389 10389 10390 10392 10394 10394 10396 10400 10403 10403 10402 10403 10405 10407 10408 10409 10410 10411 10411 10412 10412 10412 10413 10413 10412 10411 10411 10411 10411 10411 10410 10410 10409 10407 10406 10405 10404 10404 10404 10403 10401 10401 10403 10405 10406 10407 10409 10410 10411 10412 10413 10414 10414 10414 10415 10417 10419 10419 10419 10418 10416 10414
10329 10330 10331 10334 10338 10339 10339 10340 10341 10343 10345 10347 10350 10353 10355 10355 10356 10359 10363 10369 10372 10372 10373 10376 10379 10379 10380 10383 10385 10385 10387 10390 10393 10394 10394 10394 10395 10396 10398 10399 10400 10400 10401 10402 10401 10401 10402 10403 10402 10401 10401 10401 10401 10400 10400 10400 10400 10399 10397 10396 10395 10394 10394 10393 10391 10390 10391 10391 10392 10394 10395 10396 10398 10399 10400 10401 10402 10402 10403 10404 10405 10406 10406 10405 10404 10403
10321 10322 10323 10326 10329 10330 10331 10332 10335 10337 10337 10338 10340 10343 10346 10347 10348 10350 10355 10361 10364 10364 10364 10366 10368 10370 10371 10374 10376 10377 10377 10379 10382 10384 10384 10385 10385 10386 10387 10388 10389 10390 10390 10391 10391 10391 10391 10392 10392 10392 10392 10392 10391 10390 10390 10389 10390 10389 10388 10388 10387 10386 10386 10384 10383 10382 10382 10382 10381 10381 10381 10382 10384 10385 10386 10387 10388 10389 10390 10390 10391 10392 10392 10392 10392 10391
10313 10315 10316 10318 10319 10321 10323 10325 10327 10329 10329 10330 10332 10334 10336 10338 10340 10342 10346 10352 10355 10355 10356 10357 10359 10361 10363 10364 10366 10366 10366 10368 10371 10373 10374 10375 10376 10377 10377 10378 10378 10379 10380 10380 10381 10380 10380 10381 10381 10382 10381 10381 10381 10380 10380 10379 10379 10379 10378 10378 10377 10377 10377 10376 10374 10374 10374 10373 10372 10371 10370 10370 10371 10372 10373 10374 10375 10376 10377 10377 10377 10378 10378 10379 10380 10379
10303 10305 10307 10309 10311 10313 10315 10317 10319 10320 10321 10323 10325 10327 10329 10331 10332 10334 10338 10342 10345 10347 10348 10349 10350 10352 10353 10355 10356 10356 10356 10357 10359 10362 10364 10366 10367 10368 10369 10369 10368 10369 10369 10370 10370 10369 10368 10368 10370 10371 10370 10370 10370 10370 10369 10368 10367 10367 10367 10367 10366 10365 10365 10365 10365 10364 10363 10362 10362 10361 10360 10359 10359 10360 10361 10361 10361 10362 10363 10363 10363 10363 10364 10364 10365 10365
10291 10294 10298 10300 10301 10303 10305 10307 10310 10313 10315 10318 10320 10321 10322 10323 10323 10324 10327 10331 10334 10338 10339 10340 10341 10342 10344 10345 10347 10348 10348 10348 10349 10350 10352 10354 10356 10357 10357 10357 10357 10357 10358 10358 10358 10358 10357 10357 10358 10358 10358 10358 10358 10358 10357 10357 10355 10355 10355 10354 10353 10353 10353 10353 10353 10352 10351 10350 10349 10349 10348 10347 10347 10347 10347 10348 10348 10347 10348 10349 10348 10347 10349 10348 10348 10351
10284 10287 10290 10290 10292 10294 10296 10299 10302 10305 10308 10311 10313 10313 10314 10313 10313 10314 10315 10319 10323 10326 10327 10328 10330 10333 10334 10335 10336 10338 10339 10339 10339 10339 10341 10343 10344 10345 10345 10345 10345 10345 10345 10346 10346 10346 10346 10346 10345 10345 10345 10345 10345 10345 10344 10344 10343 10342 10342 10340 10339 10339 10339 10339 10339 10339 10339 10338 10337 10337 10336 10335 10335 10334 10334 10334 10334 10334 10334 10334 10333 10333 10333 10331 10331 10335
10277 10279 10280 10281 10283 10286 10289 10292 10294 10296 10298 10301 10303 10303 10303 10302 10303 10303 10305 10308 10312 10313 10313 10315 10318 10321 10322 10323 10325 10326 10327 10329 10329 10328 10329 10332 10333 10334 10334 10334 10333 10333 10334 10335 10336 10335 10334 10334 10334 10333 10333 10332 10332 10332 10332 10331 10330 10329 10328 10327 10326 10326 10326 10326 10326 10326 10325 10325 10325 10325 10324 10324 10324 10322 10320 10319 10320 10319 10319 10319 10318 10317 10318 10316 10314 10318
10269 10270 10272 10274 10276 10279 10281 10283 10284 10284 10287 10290 10291 10291 10291 10292 10293 10294 10296 10298 10299 10301 10301 10302 10306 10309 10310 10312 10313 10314 10315 10317 10318 10317 10317 10319 10322 10323 10323 10322 10321 10322 10323 10324 10323 10322 10322 10322 10322 10322 10321 10321 10320 10320 10319 10317 10316 10315 10314 10313 10313 10313 10312 10312 10313 10313 10312 10312 10312 10311 10312 10312 10311 10308 10305 10304 10304 10304 10305 10304 10302 10301 10302 10302 10300 10302